Regional Weather Roundup
Issued by NWS

Home | Current Version | Previous Version | Graphics & Text | Print | Product List | Glossary On
Versions: 1 2 3 4 5 6 7 8 9 10 11 12 13 14 15 16 17 18 19 20 21 22 23 24 25 26 27 28 29 30 31 32 33 34 35 36 37 38 39 40 41 42 43 44 45 46 47 48 49 50
000
ASUS45 KABQ 280401
RWRNM
NEW MEXICO REGIONAL WEATHER ROUNDUP
NATIONAL WEATHER SERVICE ALBUQUERQUE NM
1000 PM MDT TUE SEP 27 2016

NOTE: "FAIR" MEANS FEW OR NO CLOUDS BELOW 12,000 FEET AGL WITH NO
       SIGNIFICANT WEATHER OR OBSTRUCTIONS TO VISION.

      THIS PRODUCT IS RELEASED AS TWO VERSIONS.  ONE VERSION NEAR
      THE TOP OF THE HOUR CONTAINING PRELIMINARY DATA FROM ALBUQUERQUE
      AND OTHER STATIONS.  A FINAL VERSION WITH ADDITIONAL DATA IS
      ISSUED ABOUT 10 MINUTES AFTER THE HOUR.

NMZ501-503-504-510>518-280500-
NORTHWEST PLATEAU/NORTHCENTRAL MOUNTAINS

CITY           SKY/WX    TMP DP  RH WIND       PRES   REMARKS
FARMINGTON     FAIR      62  34  35 N7        30.18S
LOS ALAMOS     FAIR      60  22  23 SW7       30.32R
SANTA FE       FAIR      52  33  48 NW7       30.26R
TAOS           FAIR      48  23  37 CALM      30.33R

$$
NMZ402-403-502-505>509-280500-
WESTCENTRAL MOUNTAINS/SOUTHWEST MOUNTAINS

CITY           SKY/WX    TMP DP  RH WIND       PRES   REMARKS
GALLUP         FAIR      50  45  83 SW6       30.27R
SILVER CITY    FAIR      58  47  67 E3        30.25R

$$
NMZ407-409-411-412-280500-
SOUTHERN DESERTS

CITY           SKY/WX    TMP DP  RH WIND       PRES   REMARKS
DEMING         FAIR      66  51  58 S5        30.19R
LAS CRUCES     FAIR      66  54  66 SW6       30.20R
HOLLOMAN AFB   FAIR      65  52  60 E6        30.14R
ALAMOGORDO     FAIR      64  46  52 SE5       30.16S
T OR C         FAIR      66  50  56 W6        30.19R

$$
NMZ519>523-280500-
CENTRAL VALLEYS/CENTRAL HIGHLANDS

CITY           SKY/WX    TMP DP  RH WIND       PRES   REMARKS
ALBUQUERQUE    FAIR      63  39  41 SE8       30.21R
CLINES CORNERS FAIR      57  37  47 SW7       30.31S
BELEN          FAIR      64  42  44 S5        30.19S
SOCORRO        FAIR      62  45  52 S7        30.18S

$$
NMZ524>526-539-540-280500-
SOUTHCENTRAL MOUNTAINS

CITY           SKY/WX    TMP DP  RH WIND       PRES   REMARKS
RUIDOSO        FAIR      55  32  41 W6        30.33F

$$
NMZ527>531-280500-
NORTHEAST HIGHLANDS/NORTHEAST PLAINS

CITY           SKY/WX    TMP DP  RH WIND       PRES   REMARKS
LAS VEGAS      FAIR      52  27  38 S8        30.30S
RATON          FAIR      51  33  50 NE5       30.25R
CLAYTON        FAIR      60  35  39 W8        30.17S

$$
NMZ532>537-280500-
EASTCENTRAL PLAINS

CITY           SKY/WX    TMP DP  RH WIND       PRES   REMARKS
TUCUMCARI      FAIR      62  35  36 SW6       30.13R
CANNON AFB     NOT AVBL
CLOVIS AIRPORT FAIR      55  43  62 SW8       30.17S

$$
NMZ028-029-538-280500-
SOUTHEAST PLAINS

CITY           SKY/WX    TMP DP  RH WIND       PRES   REMARKS
ROSWELL        FAIR      57  45  64 SW7       30.16R
ARTESIA        FAIR      59  50  72 SW10      30.16S
CARLSBAD       FAIR      59  54  83 SW9       30.14S
HOBBS          FAIR      57  48  72 SW7       30.18S


$$



USA.gov is the U.S. government's official web portal to all federal, state and local government web resources and services.